Weather History for York, PA

Change the Weather History Date:

Wednesday, November 21, 2012

  Actual Average Record
Temperature  
Mean Temperature 40 °F -  
Max Temperature 54 °F 48 °F 73 °F (2007)
Min Temperature 26 °F 28 °F 18 °F (2001)
Degree Days  
Heating Degree Days 25    
Moisture  
Dew Point 27 °F    
Average Humidity 83    
Maximum Humidity 100    
Minimum Humidity 30    
Precipitation  
Precipitation 0.00 in - - ()
Sea Level Pressure  
Sea Level Pressure 30.20 in    
Wind  
Wind Speed 0 mph (NE)    
Max Wind Speed 5 mph    
Max Gust Speed -    
Visibility 4 miles    
Events Fog    
Averages and records for this station are not official NWS values.
T = Trace of Precipitation, MM = Missing Value Source: NWS Daily Summary

Daily Weather History Graph

Daily Weather History Graph

Search for Another Location

Airport:

Trip Planner

Search our weather history database for the weather conditions in past years. The results will help you decide how hot, cold, wet, or windy it might be!

Date:

Astronomy

Nov. 21, 2012 Rise Set
Actual Time 6:59 AM EST 4:46 PM EST
Civil Twilight 6:30 AM EST 5:16 PM EST
Nautical Twilight 5:57 AM EST 5:49 PM EST
Astronomical Twilight 5:25 AM EST 6:21 PM EST
Moon 1:02 PM EST (11/21) 12:17 AM EST (11/21)
Length of Visible Light 10h 45m
Length of Day
9h 47m
First Quarter, 61% of the Moon is Illuminated
Nov 21
First Quarter
Nov 28
Full
Dec 6
Last Quarter
Dec 13
New
Dec 20
First Quarter

Hourly Weather History & Observations

Time (EST) Temp. Dew Point Humidity Pressure Visibility Wind Dir Wind Speed Gust Speed Precip Events Conditions
12:53 AM 30.0 °F 28.0 °F 92% 30.15 in 3.0 mi Calm Calm - N/A   Clear
1:50 AM 28.4 °F 26.6 °F 93% 30.13 in 2.5 mi Calm Calm - N/A   Clear
1:53 AM 28.9 °F 27.0 °F 92% 30.15 in 2.5 mi Calm Calm - N/A   Clear
2:14 AM 28.4 °F 26.6 °F 93% 30.14 in 3.0 mi Calm Calm - N/A   Clear
2:53 AM 28.0 °F 25.0 °F 88% 30.17 in 4.0 mi Calm Calm - N/A   Clear
3:53 AM 27.0 °F 25.0 °F 92% 30.17 in 3.0 mi Calm Calm - N/A   Clear
3:58 AM 26.6 °F 24.8 °F 93% 30.15 in 1.8 mi Calm Calm - N/A   Clear
4:01 AM 26.6 °F 24.8 °F 93% 30.16 in 0.8 mi Calm Calm - N/A   Mist
4:12 AM 26.6 °F 24.8 °F 93% 30.15 in 0.2 mi Calm Calm - N/A Fog Light Freezing Fog
4:39 AM 26.6 °F 24.8 °F 93% 30.15 in 2.5 mi Calm Calm - N/A   Overcast
4:48 AM 26.6 °F 24.8 °F 93% 30.16 in 1.8 mi Calm Calm - N/A   Mostly Cloudy
4:53 AM 27.0 °F 24.1 °F 89% 30.18 in 1.2 mi Calm Calm - N/A   Mostly Cloudy
5:02 AM 26.6 °F 24.8 °F 93% 30.16 in 2.0 mi Calm Calm - N/A   Scattered Clouds
5:04 AM 26.6 °F 24.8 °F 93% 30.16 in 3.0 mi Calm Calm - N/A   Mostly Cloudy
5:18 AM 26.6 °F 23.0 °F 86% 30.17 in 2.0 mi Calm Calm - N/A   Mostly Cloudy
5:21 AM 26.6 °F 24.8 °F 93% 30.17 in 1.0 mi Calm Calm - N/A   Mist
5:28 AM 26.6 °F 24.8 °F 93% 30.17 in 0.2 mi Calm Calm - N/A Fog Light Freezing Fog
6:53 AM 28.0 °F 26.1 °F 92% 30.21 in 0.2 mi Calm Calm - N/A Fog Light Freezing Fog
7:39 AM 26.6 °F 24.8 °F 93% 30.20 in 0.2 mi Calm Calm - N/A Fog Light Freezing Fog
7:46 AM 26.6 °F 24.8 °F 93% 30.20 in 1.2 mi Calm Calm - N/A   Mist
7:53 AM 27.0 °F 25.0 °F 92% 30.23 in 1.8 mi Calm Calm - N/A   Mist
7:59 AM 28.4 °F 26.6 °F 93% 30.21 in 2.0 mi Calm Calm - N/A   Mostly Cloudy
8:03 AM 28.4 °F 26.6 °F 93% 30.21 in 1.0 mi Calm Calm - N/A   Mostly Cloudy
8:10 AM 30.2 °F 28.4 °F 93% 30.21 in 0.2 mi Calm Calm - N/A Fog Light Freezing Fog
8:53 AM 32.0 °F 30.9 °F 96% 30.24 in 0.2 mi Calm Calm - N/A Fog Fog
9:12 AM 33.8 °F 33.8 °F 100% 30.22 in 1.2 mi Calm Calm - N/A   Mostly Cloudy
9:24 AM 37.4 °F 35.6 °F 93% 30.22 in 1.8 mi Calm Calm - N/A   Scattered Clouds
9:31 AM 37.4 °F 35.6 °F 93% 30.22 in 2.5 mi Calm Calm - N/A   Partly Cloudy
9:40 AM 39.2 °F 35.6 °F 87% 30.22 in 4.0 mi Calm Calm - N/A   Clear
9:53 AM 39.9 °F 36.0 °F 86% 30.25 in 6.0 mi Calm Calm - N/A   Clear
10:53 AM 45.0 °F 34.0 °F 65% 30.24 in 9.0 mi Calm Calm - N/A   Clear
11:53 AM 50.0 °F 28.0 °F 43% 30.21 in 10.0 mi ENE 4.6 mph - N/A   Clear
12:53 PM 53.1 °F 24.1 °F 32% 30.20 in 10.0 mi NE 4.6 mph - N/A   Clear
1:53 PM 54.0 °F 23.0 °F 30% 30.19 in 10.0 mi Variable 4.6 mph - N/A   Clear
2:53 PM 54.0 °F 26.1 °F 34% 30.19 in 10.0 mi Calm Calm - N/A   Clear
3:53 PM 54.0 °F 26.1 °F 34% 30.19 in 10.0 mi Calm Calm - N/A   Clear
5:53 PM 36.0 °F 28.9 °F 76% 30.22 in 10.0 mi Calm Calm - N/A   Clear
6:53 PM 32.0 °F 27.0 °F 82% 30.24 in 10.0 mi Calm Calm - N/A   Clear
7:53 PM 30.9 °F 27.0 °F 85% 30.25 in 10.0 mi Calm Calm - N/A   Clear
8:53 PM 30.0 °F 26.1 °F 85% 30.25 in 10.0 mi Calm Calm - N/A   Clear
9:53 PM 28.9 °F 25.0 °F 85% 30.25 in 10.0 mi Calm Calm - N/A   Clear
10:53 PM 28.0 °F 25.0 °F 88% 30.24 in 9.0 mi Calm Calm - N/A   Clear
11:53 PM 28.0 °F 24.1 °F 85% 30.24 in 8.0 mi Calm Calm - N/A   Clear